Fargo, ND

4:51 PM CDT on September 19, 2019 (GMT -0500)
Hector International

Weather History for KFAR - August, 2019

Change the Weather History Date:

Thursday, August 22, 2019

  Actual Average Record
Temperature  
Mean Temperature 60 °F 68 °F  
Max Temperature 75 °F 80 °F 101 °F (1947)
Min Temperature 46 °F 56 °F 36 °F (1890)
Degree Days  
Heating Degree Days 4 1  
Month to date heating degree days 19 18  
Since 1 June heating degree days 83 107  
Since 1 July heating degree days 25 34  
Cooling Degree Days 0 5  
Month to date cooling degree days 84 132  
Year to date cooling degree days 462 472  
Since 1 June cooling degree days 452 441  
Growing Degree Days 10 (Base 50)    
Moisture  
Dew Point 51 °F    
Average Humidity 72    
Maximum Humidity 100    
Minimum Humidity 44    
Precipitation  
Precipitation 0.00 in 0.10 in 1.94 in (1978)
Month to date precipitation 2.29 1.71  
Year to date precipitation 18.63 15.18  
Snow  
Snow 0.00 in 0.00 in 0.00 in ()
Month to date snowfall 0.0 0.0  
Since 1 June snowfall 0.0 0.0  
Since 1 July snowfall 0.0 0.0  
Snow Depth 0.00 in    
Sea Level Pressure  
Sea Level Pressure 30.08 in    
Wind  
Wind Speed 3 mph ()    
Max Wind Speed 13 mph    
Max Gust Speed 17 mph    
Visibility 9.3 miles    
Events      
T = Trace of Precipitation, MM = Missing Value Source: Averaged Metar Reports

Daily Weather History Graph

Daily Weather History Graph

Search for Another Location

Airport or City:

Astronomy

Aug. 22, 2019 Rise Set
Actual Time 6:33 AM CDT 8:25 PM CDT
Civil Twilight 6:00 AM CDT 8:58 PM CDT
Nautical Twilight 5:21 AM CDT 9:37 PM CDT
Astronomical Twilight 4:37 AM CDT 10:21 PM CDT
Moon 11:50 PM CDT (8/22) 1:35 PM CDT (8/22)
Length of Visible Light 14h 57m
Length of Day
13h 52m
Waning Gibbous, 59% of the Moon is Illuminated
Aug 22
Waning Gibbous
Aug 23
Last Quarter
Aug 30
New
Sep 5
First Quarter
Sep 13
Full

Hourly Weather History & Observations

Time (CDT) Temp. Dew Point Humidity Pressure Visibility Wind Dir Wind Speed Gust Speed Precip Events Conditions
12:53 AM 52.0 °F 50.0 °F 93% 30.09 in 10.0 mi East 4.6 mph - N/A   Clear
1:53 AM 54.0 °F 50.0 °F 86% 30.10 in 10.0 mi Calm Calm - N/A   Clear
2:53 AM 50.0 °F 48.9 °F 96% 30.09 in 10.0 mi SE 3.5 mph - N/A   Clear
3:53 AM 52.0 °F 51.1 °F 97% 30.08 in 10.0 mi Calm Calm - N/A   Clear
4:53 AM 50.0 °F 48.9 °F 96% 30.08 in 10.0 mi Calm Calm - N/A   Clear
5:53 AM 48.0 °F 46.9 °F 96% 30.09 in 5.0 mi Calm Calm - N/A   Clear
5:55 AM 48.0 °F 46.9 °F 96% 30.08 in 1.8 mi Calm Calm - N/A   Clear
6:14 AM 46.9 °F 46.9 °F 100% 30.08 in 5.0 mi ENE 4.6 mph - N/A   Clear
6:53 AM 48.0 °F 48.0 °F 100% 30.10 in 10.0 mi ENE 4.6 mph - N/A   Clear
7:53 AM 54.0 °F 52.0 °F 93% 30.11 in 10.0 mi Calm Calm - N/A   Clear
8:53 AM 60.1 °F 55.0 °F 83% 30.11 in 10.0 mi Calm Calm - N/A   Clear
9:53 AM 66.0 °F 53.1 °F 63% 30.10 in 10.0 mi Calm Calm - N/A   Clear
10:53 AM 68.0 °F 51.1 °F 55% 30.10 in 10.0 mi SE 5.8 mph - N/A   Clear
11:53 AM 70.0 °F 52.0 °F 53% 30.11 in 10.0 mi SE 8.1 mph - N/A   Clear
12:53 PM 72.0 °F 53.1 °F 51% 30.10 in 10.0 mi East 8.1 mph - N/A   Partly Cloudy
1:53 PM 72.0 °F 52.0 °F 49% 30.09 in 10.0 mi SE 6.9 mph - N/A   Scattered Clouds
2:53 PM 73.0 °F 51.1 °F 46% 30.08 in 10.0 mi SE 5.8 mph - N/A   Partly Cloudy
3:32 PM 73.0 °F 50.0 °F 44% 30.07 in 10.0 mi Variable 3.5 mph - N/A   Partly Cloudy
3:53 PM 73.9 °F 52.0 °F 46% 30.06 in 10.0 mi East 8.1 mph - N/A   Partly Cloudy
4:53 PM 73.9 °F 53.1 °F 48% 30.06 in 10.0 mi ESE 10.4 mph - N/A   Mostly Cloudy
5:53 PM 72.0 °F 53.1 °F 51% 30.05 in 10.0 mi East 8.1 mph - N/A   Clear
6:53 PM 71.1 °F 54.0 °F 55% 30.06 in 10.0 mi ESE 8.1 mph - N/A   Clear
7:53 PM 66.9 °F 53.1 °F 61% 30.06 in 10.0 mi ESE 6.9 mph - N/A   Clear
8:53 PM 63.0 °F 53.1 °F 70% 30.07 in 10.0 mi ESE 8.1 mph - N/A   Clear
9:53 PM 61.0 °F 52.0 °F 72% 30.08 in 10.0 mi ESE 8.1 mph - N/A   Clear
10:53 PM 62.1 °F 52.0 °F 70% 30.09 in 10.0 mi SE 9.2 mph - N/A   Clear
11:53 PM 59.0 °F 52.0 °F 78% 30.10 in 10.0 mi SE 8.1 mph - N/A   Clear